Regional Weather Roundup
Issued by NWS Goodland, KS

Home | Current Version | Previous Version | Text Only | Print | Product List | Glossary On
Versions: 1 2 3 4 5 6 7 8 9 10 11 12 13 14 15 16 17 18 19 20 21 22 23 24 25 26 27 28 29 30 31 32 33 34 35 36 37 38 39 40 41 42 43 44 45 46 47 48 49 50
000
ASUS43 KGLD 191308
RWRGLD

GOODLAND FORECAST AREA HOURLY WEATHER ROUNDUP
NATIONAL WEATHER SERVICE GOODLAND KS
700 AM MDT TUE SEP 19 2017

...OFFICIAL OBSERVATIONS...

CITY           SKY/WX    TMP DP  RH WIND       PRES   REMARKS
GOODLAND KS    CLEAR     60  59  96 S12       29.71F FOG
HILL CITY KS   CLEAR     67  64  90 CALM      29.73S
IMPERIAL NEB   CLOUDY    63  60  90 S10       29.68S
MCCOOK NEB     CLEAR     66  64  93 S17       29.67F
AKRON CO       CLOUDY    61  30  31 SW13      29.71S
BURLINGTON CO  CLOUDY    46  44  93 W9        29.74R
LIMON CO         N/A    N/A N/A N/A MISG      29.79S
$$

...UNOFFICIAL OBSERVATIONS...

CITY           SKY/WX    TMP DP  RH WIND       PRES   REMARKS
LENORA KS        N/A     66  32  28 MISG        N/A
NORTON KS      CLEAR     68  61  77 SE10G17   29.71F
SHARON SPRINGS   N/A     60  58  93 S12         N/A
TRENTON NEB      N/A     66  32  28 S5          N/A
KIT CARSON CO    N/A     47  44  89 CALM        N/A
YUMA CO        FAIR      48  30  49 NW5       29.69S
$$




USA.gov is the U.S. government's official web portal to all federal, state and local government web resources and services.